Weather History for Mobridge, SD

Change the Weather History Date:

Sunday, December 2, 2012

  Actual Average Record
Temperature  
Mean Temperature 40 °F 23 °F  
Max Temperature 54 °F 33 °F 57 °F (1948)
Min Temperature 26 °F 12 °F -18 °F (1985)
Degree Days  
Heating Degree Days 25 42  
Month to date heating degree days 53 84  
Since 1 July heating degree days 1800 1850  
Cooling Degree Days 0 0  
Month to date cooling degree days 0 0  
Year to date cooling degree days 866 644  
Moisture  
Dew Point 31 °F    
Average Humidity 72    
Maximum Humidity 100    
Minimum Humidity 44    
Precipitation  
Precipitation 0.00 in 0.00 in 0.33 in (1996)
Month to date precipitation T 0.01  
Year to date precipitation 13.17 17.44  
Snow  
Snow 0.00 in - - ()
Month to date snowfall 0.0  
Since 1 July snowfall 0.5  
Snow Depth 0.00 in    
Sea Level Pressure  
Sea Level Pressure 29.62 in    
Wind  
Wind Speed 11 mph (SE)    
Max Wind Speed 18 mph    
Max Gust Speed 23 mph    
Visibility 10 miles    
Events      
T = Trace of Precipitation, MM = Missing Value Source: NWS Daily Summary

Daily Weather History Graph

Daily Weather History Graph

Search for Another Location

Airport:

Trip Planner

Search our weather history database for the weather conditions in past years. The results will help you decide how hot, cold, wet, or windy it might be!

Date:

Astronomy

Dec. 02, 2012 Rise Set
Actual Time 8:03 AM CST 4:59 PM CST
Civil Twilight 7:29 AM CST 5:32 PM CST
Nautical Twilight 6:52 AM CST 6:09 PM CST
Astronomical Twilight 6:16 AM CST 6:45 PM CST
Moon 8:53 PM CST (12/2) 10:49 AM CST (12/2)
Length of Visible Light 10h 03m
Length of Day
8h 55m
Waning Gibbous, 85% of the Moon is Illuminated
Dec 2
Waning Gibbous
Dec 6
Last Quarter
Dec 13
New
Dec 19
First Quarter
Dec 28
Full

Hourly Weather History & Observations

Time (CST) Temp. Windchill Dew Point Humidity Pressure Visibility Wind Dir Wind Speed Gust Speed Precip Events Conditions
12:52 AM 28.9 °F 20.4 °F 28.0 °F 96% 29.83 in 7.0 mi SE 9.2 mph - N/A   Clear
1:52 AM 30.0 °F 22.4 °F 28.9 °F 96% 29.83 in 7.0 mi SE 8.1 mph - N/A   Clear
2:52 AM 30.9 °F 24.3 °F 30.0 °F 96% 29.83 in 9.0 mi SE 6.9 mph - N/A   Clear
3:52 AM 30.9 °F 25.2 °F 30.0 °F 96% 29.82 in 9.0 mi SE 5.8 mph - N/A   Clear
4:52 AM 30.9 °F 22.8 °F 28.9 °F 92% 29.82 in 10.0 mi SE 9.2 mph - N/A   Clear
5:52 AM 30.9 °F 22.2 °F 30.0 °F 96% 29.83 in 10.0 mi SE 10.4 mph - N/A   Clear
6:52 AM 30.9 °F 23.5 °F 28.9 °F 92% 29.81 in 10.0 mi SE 8.1 mph - N/A   Clear
7:52 AM 28.9 °F 21.9 °F 28.0 °F 96% 29.81 in 10.0 mi SE 6.9 mph - N/A   Clear
8:52 AM 30.9 °F 23.5 °F 28.9 °F 92% 29.80 in 10.0 mi SSE 8.1 mph - N/A   Clear
9:52 AM 34.0 °F 27.2 °F 32.0 °F 92% 29.77 in 10.0 mi ESE 8.1 mph - N/A   Clear
10:52 AM 37.0 °F 29.8 °F 34.0 °F 89% 29.74 in 10.0 mi SSE 10.4 mph - N/A   Clear
11:52 AM 39.0 °F 31.0 °F 35.1 °F 86% 29.68 in 10.0 mi SSE 13.8 mph - N/A   Clear
12:52 PM 46.0 °F 39.9 °F 35.1 °F 66% 29.65 in 10.0 mi SSE 13.8 mph - N/A   Clear
1:52 PM 50.0 °F - 35.1 °F 57% 29.60 in 10.0 mi SSE 15.0 mph - N/A   Clear
2:52 PM 52.0 °F - 34.0 °F 50% 29.52 in 10.0 mi SE 15.0 mph - N/A   Clear
3:52 PM 50.0 °F - 34.0 °F 54% 29.50 in 10.0 mi SE 15.0 mph - N/A   Clear
4:52 PM 50.0 °F - 34.0 °F 54% 29.47 in 10.0 mi SE 12.7 mph - N/A   Clear
5:52 PM 51.1 °F - 33.1 °F 50% 29.42 in 10.0 mi SE 11.5 mph - N/A   Clear
6:52 PM 52.0 °F - 33.1 °F 49% 29.40 in 10.0 mi South 11.5 mph - N/A   Clear
7:52 PM 51.1 °F - 30.9 °F 46% 29.40 in 10.0 mi South 9.2 mph - N/A   Clear
8:52 PM 51.1 °F - 30.9 °F 46% 29.38 in 10.0 mi SSE 11.5 mph - N/A   Clear
9:52 PM 48.9 °F - 30.0 °F 48% 29.37 in 10.0 mi SE 11.5 mph - N/A   Clear
10:52 PM 48.9 °F - 30.0 °F 48% 29.36 in 10.0 mi ESE 11.5 mph - N/A   Clear
11:52 PM 54.0 °F - 30.0 °F 40% 29.35 in 10.0 mi South 16.1 mph - N/A   Clear